Regional Weather Roundup
Issued by NWS Grand Forks, ND

Home | Current Version | Previous Version | Text Only | Print | Product List | Glossary On
Versions: 1 2 3 4 5 6 7 8 9 10 11 12 13 14 15 16 17 18 19 20 21 22 23 24 25 26 27 28 29 30 31 32 33 34 35 36 37 38 39 40 41 42 43 44 45 46 47 48 49 50
000
ASUS43 KFGF 261031
RWRFGF
PRAIRIE TO PINES  WEATHER ROUNDUP
NATIONAL WEATHER SERVICE EASTERN NORTH DAKOTA/GRAND FORKS ND
400 AM CST SUN FEB 26 2017

 **SATELLITE DATA USED TO AUGMENT SKY COVER AT AUTOMATED STATIONS**
 *****  WEATHER ACROSS EASTERN NORTH DAKOTA  *****

CITY           SKY/WX    TMP DP  RH WIND       PRES   REMARKS
GRAND FORKS    FLURRIES  13   5  70 N10       29.75S WCI   0
GRAND FRKS AFB MOCLDY     9   5  85 N6        29.76R WCI  -1
DEVILS LAKE    FAIR       6   3  87 NW8       29.73S WCI  -7
FARGO          CLOUDY    17  13  84 MISG      29.71R
WAHPETON ARPT  CLOUDY   N/A N/A N/A SW7       29.67S
$$

 ***** WEATHER ACROSS CENTRAL AND WESTERN NORTH DAKOTA  *****

CITY           SKY/WX    TMP DP  RH WIND       PRES   REMARKS
BISMARCK       FAIR      14   9  80 NW8       29.75R WCI   3
MINOT          FAIR       0  -4  83 SW6       29.73S WCI -12
JAMESTOWN      FLURRIES  15  12  88 N10       29.71R WCI   2
MINOT AFB      FAIR      -5  -9  81 W7        29.73S WCI -19
GARRISON         N/A      2   0  91 NW5       29.73R WCI  -8
WILLISTON      CLOUDY     8   5  87 CALM      29.71F
DICKINSON      CLOUDY    13  10  88 E7        29.64F WCI   3
HETTINGER      FAIR       9   6  88 CALM      29.68S
$$

 *****  OTHER AIRPORT OBSERVATIONS IN OUR AREA  *****

CITY           SKY/WX    TMP DP  RH WIND       PRES   REMARKS
WALHALLA       NOT AVBL
GRAFTON AIRPOR FAIR       9   7  92 CALM      29.78R
VALLEY CITY AR FLURRIES  14  14 100 N12G18    29.73R WCI   0
CANDO          NOT AVBL
CAVALIER APRT    N/A      7   1  78 NW7       29.76S WCI  -5
GWINNER        PTSUNNY   28  27  93 W10       29.67S WCI  19
SHEYENNE NWR     N/A     27  25  93 W12       29.95  WCI  17
ROLLA          FAIR       0  -2  92 W9        29.71R WCI -16
 ***** THE ABOVE OBSERVATIONS ARE NON NWS ARE NOT QUALITY
       CONTROLLED AND MAY MIS-REPORT RAIN FOR SNOW...
$$

  *****  WEATHER ACROSS NORTHERN MINNESOTA  *****

CITY           SKY/WX    TMP DP  RH WIND       PRES   REMARKS
FLAG ISLAND    FAIR       7   0  72 W8        29.69S WCI  -6
WARROAD        MOCLDY     9   1  72 W3        29.72S
ROSEAU         MOCLDY    10   3  72 NW5       29.72S WCI   2
HALLOCK        FAIR       7   1  78 CALM      29.75S
THF RVR FALLS    N/A    N/A N/A N/A MISG        N/A
BAUDETTE       LGT SNOW   9   3  77 NW10      29.69R WCI  -5
WASKISH        LGT SNOW  12   9  85 NW5       29.68S WCI   4
CROOKSTON      LGT SNOW  12   9  85 N13       29.75R WCI  -3
STEPHEN NDAWN    N/A      9   3  78 N6          N/A  WCI  -1
GREENBUSH NDAW   N/A      5   1  85 NW5         N/A  WCI  -4
$$
  *****  WEATHER ACROSS CENTRAL AND WEST MINNESOTA  *****

CITY           SKY/WX    TMP DP  RH WIND       PRES   REMARKS
FOSSTON        LGT SNOW  12   9  85 N10       29.69R WCI  -1
BEMIDJI        LGT SNOW  14  11  88 N8        29.65R WCI   3
PARK RAPIDS    LGT SNOW  23  19  85 W7        29.62S FOG     WCI  15
ELBOW LAKE     LGT SNOW  22  22  99 W5        29.67F WCI  16
WADENA         FOG       19  18  93 CALM      29.64S VSB 1
DETROIT LAKES  LGT SNOW  23  23 100 W5        29.64F WCI  17
MOORHEAD       MIX PCPN  16  12  86 N17       29.71R WCI   0
FERGUS FALLS   LGT SNOW  19  19 100 CALM      29.71S
MORRIS MN      CLOUDY    27  25  93 W5        29.69R WCI  21
STAPLES        FOG       19  19 100 CALM      29.65S VSB 1
$$
  *****  WEATHER ELSEWHERE ACROSS MINNESOTA  *****

CITY           SKY/WX    TMP DP  RH WIND       PRES   REMARKS
DULUTH         CLOUDY    25  22  88 SW9       29.62F WCI  15
INTRNTL FALLS  LGT SNOW  11   7  84 NW6       29.66S FOG     WCI   1
ELY            MOCLDY    16  16 100 CALM      29.62F
CLOQUET        CLOUDY    25  21  86 SW5       29.63F WCI  19
WHEATON        CLOUDY    25  23  93 SW5       29.71S WCI  19
BRAINERD       CLOUDY    23  22  96 CALM      29.65F
HIBBING        MOCLDY    17  16  95 CALM      29.62F
ALEXANDRIA     CLOUDY    25  23  92 SW8       29.67S WCI  16
SAINT CLOUD    CLOUDY    26  21  81 SW10      29.69F WCI  16
MINNEAPOLIS    CLOUDY    25  16  68 SW8       29.75F WCI  16
$$

  *****  WEATHER ACROSS SOUTH DAKOTA  *****

CITY           SKY/WX    TMP DP  RH WIND       PRES   REMARKS
SIOUX FALLS    FAIR      20  16  84 SW3       29.74F
BROOKINGS      CLOUDY    20  18  92 S6        29.70F WCI  12
WATERTOWN      FLURRIES  24  22  91 NW9       29.68F WCI  14
HURON          MOCLDY    23  21  92 SW8       29.73S WCI  14
SISSETON         N/A     26  23  88 W7        29.67F WCI  18
ABERDEEN       FAIR      19  16  88 SW6       29.70S WCI  11
MITCHELL       FAIR      26  19  74 SW10      29.75S WCI  16
PIERRE         FAIR      24  20  84 W9        29.73S WCI  14
MOBRIDGE       FAIR      21  16  81 NW9       29.70R WCI  11
RAPID CITY     FAIR      16   8  71 W7        29.72F WCI   6
$$

  *****  SOME WEATHER IN NEARBY STATES *****

CITY           SKY/WX    TMP DP  RH WIND       PRES   REMARKS
GLASGOW MT     CLOUDY    17  14  88 SE6       29.64S WCI   9
GREAT FALLS MT CLOUDY    26  15  63 NW10      29.71R WCI  16
CHEYENNE WY    FAIR      13  -1  54 SW10      29.75S WCI   0
SCOTTSBLUFF NE FAIR       9   2  73 NW7       29.81S WCI  -2
OMAHA NE       MOCLDY    32  21  64 SW9       29.86S WCI  24
DES MOINES IA  MOCLDY    32  17  54 SW15      29.85F WCI  22
DAVENPORT IA   CLOUDY    28  17  63 S15       29.96F WCI  16
CHICAGO IL     CLOUDY    25  19  78 S5        30.01F WCI  19
EAU CLAIRE WI  CLOUDY    23  16  74 S7        29.76F WCI  15
LA CROSSE WI   MOCLDY    28  19  69 S12       29.82F WCI  18
$$

  *****  SOME NATIONAL WEATHER *****

CITY           SKY/WX    TMP DP  RH WIND       PRES   REMARKS
LA GUARDIA NY  FAIR      41  22  46 NW23G32   29.81R
RALEIGH NC     FAIR      40  17  39 NW3       30.04R
ATLANTA GA     FAIR      37  22  54 NW9       30.11R
NEW ORLEANS LA FAIR      47  37  68 SE8       30.11S
OKLAHOMA CITY  MOCLDY    36  22  56 S12       29.93F
ALBUQUERQUE NM FAIR      40   9  28 SW9       29.88S
SALT LAKE CITY FAIR      23  14  68 SE12      29.97F WCI  12
LOS ANGELES CA CLOUDY    52  44  74 W14       30.01R
BOISE ID       FAIR      29  19  66 SE10      29.91F WCI  20
SEATTLE WA     LGT RAIN  37  36  95 SE12      29.83F
$$

*** WEATHER ACROSS MANITOBA...SASKATCHEWAN AND ONTARIO ***
                ***ONTARIO***

CITY           SKY/WX    TMP DP  RH WIND       PRES   REMARKS
GERALDTON      CLEAR     -8 -11  84 CALM      29.63S
THUNDER BAY    CLOUDY    12   9  85 W2        29.66F
SIOUX LOOKOUT  LGT SNOW  10   7  85 CALM      29.58S
TORONTO        CLOUDY    27  14  59 W9        29.90R WCI  17
BIG TROUT LK   MOCLDY    -6  -9  84 W7        29.57S WCI -20
PICKLE LAKE    NOT AVBL
DRYDEN         LGT SNOW  10   7  85 W9        29.60S WCI  -2
KENORA         FLURRIES   7   3  85 NW6       29.65R WCI  -3
$$
                *** MANITOBA***

CITY           SKY/WX    TMP DP  RH WIND       PRES   REMARKS
BRANDON        PTCLDY    -4  -8  84 W9        29.73S WCI -20
DAUPHIN        CLEAR      1  -2  85 SW10      29.72F WCI -14
ISLAND LAKE    CRYSTALS  -8 -11  84 W3        29.64S
PILOT MOUND      N/A      0  -4  85 W6          N/A  WCI -12
THE PAS        PTCLDY    -2  -8  78 SE5       29.65F WCI -12
THOMPSON       CLEAR    -18 -24  76 W3        29.66R
WINNIPEG       FLURRIES   7   3  85 W3        29.75S
LYNN LAKE      FLURRIES -17 -20  83 N5        29.65R WCI -29
CHURCHILL      CRYSTALS -26 -31  75 NW10      29.68F WCI -48
GILLAM         FLURRIES -18 -24  76 NW5       29.63S WCI -31
$$
                ***SASKATCHEWAN***

CITY           SKY/WX    TMP DP  RH WIND       PRES   REMARKS
ESTEVAN        CRYSTALS  -2  -4  92 SW6       29.70F WCI -14
KINDERSLEY     MOCLDY    14   9  79 NW6       29.67R WCI   5
LLOYDMINSTER   FLURRIES  14  10  85 W7        29.69S WCI   4
PRINCE ALBERT  FLURRIES   5   1  85 W6        29.65S WCI  -6
REGINA         MOCLDY     9   5  85 S6        29.67S WCI  -1
YORKTON        FLURRIES   7   3  85 SW7       29.65F WCI  -5
N. BATTLEFORD  FLURRIES   9   9 100 NW6       29.70R WCI  -1
LA RONGE       FLURRIES   9   3  78 W13       29.61R WCI  -7
SASKATOON      PTCLDY     9   5  85 NW8       29.67S WCI  -4
SWIFT CURRENT  LGT SNOW  16  14  93 W7        29.61S WCI   6
$$
NOTE: THESE ARE AUTOMATED STATIONS WITH LIMITED QUALITY CONTROL
      "FAIR" INDICATES FEW OR NO CLOUDS BELOW 12,000 FEET WITH NO
      SIGNIFICANT WEATHER AND/OR OBSTRUCTIONS TO VISIBILITY.
      SKY/WX - SKY CONDITION AND SIGNIFICANT WEATHER.
      TMP - AIR TEMPERATURE.    DP   - DEWPOINT TEMPERATURE.
      RH  - RELATIVE HUMIDITY.  PRES - PRESSURE.
      HX  - HEAT INDEX.         WCI  - WIND CHILL INDEX.
$




USA.gov is the U.S. government's official web portal to all federal, state and local government web resources and services.